Find Starlink 4061

NORAD ID: 53247 Int'l Des: 2022-086 Owner: SPXS Country: US Constellation: starlink operational
LEOCIRCULAR

Live Position

Loading 3D Globe...

About Starlink 4061

Description loading...

Upcoming Passes

Passes for default location (London). Set your location on the main map for personalized predictions.

Altitude History

Loading altitude history...

Two-Line Element Set

1 53247U 22086F 26120.98180154 -.00000297 00000-0 -57463-6 0 9997
2 53247 53.2182 324.5521 0001403 102.6279 257.4870 15.08841306209203
Epoch: Apr 30, 2026 • Age: 23 hours

Current Status

Altitude 548.1 km
Velocity 7.59 km/s
Sub-Earth Point -27.12°S, 38.77°W
Launch Date Jul 24, 2022
Age 3.7 years
Type internet

Technical Details

Classification Payload
Mass 297.00 kg
Dry Mass 275.00 kg
Total Mass 297.00 kg
Length 0.20 m
Diameter 2.80 m
Span 9.00 m
Shape Box + pan
Manufacturer SPXS
Bus Type Starlink
Phase Status In Orbit
Owner/State SPXS/US

Most Searched